Grand Forks AFB, ND

7:21 AM CST on January 17, 2018 (GMT -0600)
Grand Forks Air Force Base

Weather History for KRDR - November, 2012

Change the Weather History Date:

Sunday, November 25, 2012

  Actual Average Record
Temperature  
Mean Temperature 16 °F -  
Max Temperature 28 °F 29 °F 45 °F (2016)
Min Temperature 3 °F 14 °F -16 °F (1996)
Degree Days  
Heating Degree Days 50    
Moisture  
Dew Point 12 °F    
Average Humidity 78    
Maximum Humidity 86    
Minimum Humidity 62    
Precipitation  
Precipitation 0.00 in - - ()
Sea Level Pressure  
Sea Level Pressure 30.08 in    
Wind  
Wind Speed 11 mph (North)    
Max Wind Speed 22 mph    
Max Gust Speed 28 mph    
Visibility 9 miles    
Events Snow    
Averages and records for this station are not official NWS values.
T = Trace of Precipitation, MM = Missing Value Source: NWS Daily Summary

Daily Weather History Graph

Daily Weather History Graph

Search for Another Location

Airport or City:

Trip Planner

Search our weather history database for the weather conditions in past years. The results will help you decide how hot, cold, wet, or windy it might be!

Date:

Astronomy

Nov. 25, 2012 Rise Set
Actual Time 7:51 AM CST 4:42 PM CST
Civil Twilight 7:16 AM CST 5:17 PM CST
Nautical Twilight 6:37 AM CST 5:55 PM CST
Astronomical Twilight 6:00 AM CST 6:32 PM CST
Moon 3:07 PM CST (11/25) 4:57 AM CST (11/25)
Length of Visible Light 10h 01m
Length of Day
8h 51m
Waxing Gibbous, 93% of the Moon is Illuminated
Nov 25
Waxing Gibbous
Nov 28
Full
Dec 6
Last Quarter
Dec 13
New
Dec 19
First Quarter

Hourly Weather History & Observations

Time (CST) Temp. Windchill Dew Point Humidity Pressure Visibility Wind Dir Wind Speed Gust Speed Precip Events Conditions
12:55 AM 24.6 °F 13.2 °F 18.1 °F 76% 29.94 in 10.0 mi NNW 12.7 mph - N/A   Overcast
1:55 AM 24.1 °F 12.0 °F 17.2 °F 75% 29.94 in 10.0 mi NW 13.8 mph - N/A   Overcast
2:55 AM 23.7 °F 16.6 °F 16.7 °F 75% 29.96 in 10.0 mi NNW 5.8 mph - N/A   Overcast
3:14 AM 23.0 °F 13.1 °F 17.6 °F 80% 29.96 in 10.0 mi WNW 9.2 mph - N/A   Overcast
3:28 AM 23.0 °F 11.7 °F 17.6 °F 80% 29.96 in 10.0 mi NW 11.5 mph - N/A   Overcast
3:55 AM 23.5 °F 17.6 °F 16.7 °F 75% 29.95 in 10.0 mi WNW 4.6 mph - 0.00 in   Overcast
4:55 AM 23.9 °F 11.7 °F 17.8 °F 77% 29.96 in 10.0 mi WNW 13.8 mph - N/A   Overcast
5:23 AM 23.0 °F 13.1 °F 17.6 °F 80% 29.95 in 10.0 mi WNW 9.2 mph - N/A Snow Light Snow
5:38 AM 23.0 °F 12.4 °F 17.6 °F 80% 29.95 in 10.0 mi West 10.4 mph - N/A   Overcast
5:50 AM 23.0 °F 12.4 °F 17.6 °F 80% 29.95 in 10.0 mi West 10.4 mph - N/A   Overcast
5:55 AM 23.7 °F 12.6 °F 17.8 °F 78% 29.95 in 10.0 mi WNW 11.5 mph - 0.00 in   Overcast
6:22 AM 24.8 °F 15.3 °F 19.4 °F 80% 29.94 in 10.0 mi West 9.2 mph - N/A Snow Light Snow
6:30 AM 24.8 °F 16.1 °F 19.4 °F 80% 29.94 in 10.0 mi West 8.1 mph - N/A Snow Light Snow
6:33 AM 24.8 °F 16.1 °F 19.4 °F 80% 29.94 in 10.0 mi West 8.1 mph - N/A Snow Light Snow
6:44 AM 24.8 °F 16.9 °F 19.4 °F 80% 29.94 in 10.0 mi West 6.9 mph - N/A   Overcast
6:55 AM 24.4 °F 17.5 °F 19.4 °F 81% 29.94 in 10.0 mi West 5.8 mph - 0.00 in   Overcast
7:09 AM 24.8 °F 19.1 °F 19.4 °F 80% 29.94 in 10.0 mi West 4.6 mph - N/A   Overcast
7:26 AM 24.8 °F 20.5 °F 19.4 °F 80% 29.94 in 10.0 mi WSW 3.5 mph - N/A   Overcast
7:31 AM 24.8 °F 20.5 °F 21.2 °F 86% 29.94 in 10.0 mi West 3.5 mph - N/A   Overcast
7:38 AM 24.8 °F 19.1 °F 21.2 °F 86% 29.94 in 9.0 mi West 4.6 mph - N/A   Overcast
7:41 AM 24.8 °F 17.9 °F 21.2 °F 86% 29.94 in 9.0 mi West 5.8 mph - N/A   Overcast
7:50 AM 24.8 °F 16.1 °F 21.2 °F 86% 29.94 in 9.0 mi West 8.1 mph - N/A Snow Light Snow
7:55 AM 25.2 °F 16.5 °F 21.6 °F 86% 29.94 in 9.0 mi West 8.1 mph - 0.00 in Snow Light Snow
7:59 AM 24.8 °F 16.1 °F 21.2 °F 86% 29.93 in 10.0 mi West 8.1 mph - N/A   Overcast
8:01 AM 24.8 °F 16.1 °F 21.2 °F 86% 29.93 in 10.0 mi West 8.1 mph - N/A   Overcast
8:31 AM 26.6 °F 18.2 °F 21.2 °F 80% 29.94 in 10.0 mi WNW 8.1 mph - N/A   Overcast
8:40 AM 26.6 °F 17.5 °F 21.2 °F 80% 29.94 in 10.0 mi WNW 9.2 mph - N/A   Overcast
8:45 AM 26.6 °F 17.5 °F 23.0 °F 86% 29.95 in 10.0 mi WNW 9.2 mph - N/A   Overcast
8:55 AM 27.3 °F 17.7 °F 22.3 °F 81% 29.95 in 10.0 mi NW 10.4 mph - 0.00 in   Overcast
8:59 AM 28.4 °F 17.5 °F 23.0 °F 80% 29.95 in 10.0 mi NNW 13.8 mph 18.4 mph N/A   Overcast
9:07 AM 28.4 °F 16.2 °F 21.2 °F 74% 29.95 in 10.0 mi NNW 17.3 mph 24.2 mph N/A   Overcast
9:55 AM 27.3 °F 16.1 °F 20.7 °F 76% 29.97 in 10.0 mi NNW 13.8 mph - 0.00 in   Overcast
9:56 AM 26.6 °F 15.2 °F 21.2 °F 80% 29.98 in 10.0 mi North 13.8 mph 21.9 mph N/A   Overcast
9:57 AM 26.6 °F 15.7 °F 21.2 °F 80% 29.98 in 10.0 mi NNE 12.7 mph 21.9 mph N/A   Overcast
10:04 AM 26.6 °F 15.2 °F 21.2 °F 80% 29.99 in 10.0 mi North 13.8 mph 21.9 mph N/A   Overcast
10:11 AM 24.8 °F 14.0 °F 21.2 °F 86% 29.99 in 10.0 mi North 11.5 mph - N/A Snow Light Snow
10:18 AM 24.8 °F 12.9 °F 21.2 °F 86% 30.00 in 10.0 mi North 13.8 mph 19.6 mph N/A Snow Light Snow
10:27 AM 24.8 °F 12.4 °F 19.4 °F 80% 30.00 in 10.0 mi North 15.0 mph 19.6 mph N/A   Overcast
10:33 AM 24.8 °F 13.4 °F 19.4 °F 80% 30.01 in 10.0 mi North 12.7 mph - N/A   Overcast
10:41 AM 24.8 °F 12.9 °F 19.4 °F 80% 30.01 in 8.0 mi North 13.8 mph - N/A Snow Light Snow
10:45 AM 24.8 °F 10.0 °F 19.4 °F 80% 30.02 in 4.0 mi North 21.9 mph 27.6 mph N/A Snow Light Snow
10:46 AM 24.8 °F 10.3 °F 19.4 °F 80% 30.02 in 4.0 mi NNE 20.7 mph 27.6 mph N/A Snow Light Snow
10:55 AM 23.0 °F 9.6 °F 17.6 °F 80% 30.02 in 4.0 mi North 16.1 mph 27.6 mph 0.00 in Snow Light Snow
11:00 AM 23.0 °F 10.6 °F 17.6 °F 80% 30.03 in 5.0 mi North 13.8 mph - N/A Snow Light Snow
11:03 AM 23.0 °F 10.6 °F 17.6 °F 80% 30.03 in 5.0 mi North 13.8 mph - N/A Snow Light Snow
11:27 AM 21.2 °F 7.3 °F 15.8 °F 80% 30.04 in 10.0 mi North 16.1 mph 25.3 mph N/A   Overcast
11:31 AM 21.2 °F 6.4 °F 15.8 °F 80% 30.04 in 10.0 mi North 18.4 mph 23.0 mph N/A Snow Light Snow
11:40 AM 21.2 °F 6.4 °F 14.0 °F 74% 30.04 in 7.0 mi NNE 18.4 mph 25.3 mph N/A Snow Light Snow
11:46 AM 21.2 °F 6.8 °F 14.0 °F 74% 30.05 in 8.0 mi North 17.3 mph 25.3 mph N/A Snow Light Snow
11:51 AM 21.2 °F 6.4 °F 14.0 °F 74% 30.05 in 10.0 mi NNE 18.4 mph 23.0 mph N/A Snow Light Snow
11:54 AM 21.2 °F 5.6 °F 14.0 °F 74% 30.05 in 9.0 mi NNE 20.7 mph - N/A   Overcast
12:06 PM 19.4 °F 4.1 °F 12.2 °F 74% 30.05 in 6.0 mi NNE 18.4 mph 26.5 mph N/A Snow Light Snow
12:09 PM 19.4 °F 3.2 °F 10.4 °F 68% 30.05 in 6.0 mi NNE 20.7 mph 26.5 mph N/A Snow Light Snow
12:11 PM 19.4 °F 4.1 °F 10.4 °F 68% 30.06 in 8.0 mi NNE 18.4 mph - N/A Snow Light Snow
12:15 PM 19.4 °F 4.1 °F 10.4 °F 68% 30.06 in 10.0 mi NNE 18.4 mph - N/A Snow Light Snow
12:16 PM 19.4 °F 3.6 °F 10.4 °F 68% 30.06 in 10.0 mi NNE 19.6 mph - N/A   Overcast
12:48 PM 19.4 °F 4.1 °F 10.4 °F 68% 30.06 in 10.0 mi North 18.4 mph - N/A   Overcast
12:55 PM 19.2 °F 3.8 °F 10.9 °F 70% 30.06 in 10.0 mi North 18.4 mph - 0.00 in   Overcast
1:02 PM 19.4 °F 5.5 °F 12.2 °F 74% 30.06 in 10.0 mi North 15.0 mph - N/A   Overcast
1:05 PM 19.4 °F 4.1 °F 12.2 °F 74% 30.07 in 10.0 mi North 18.4 mph 21.9 mph N/A   Overcast
1:09 PM 19.4 °F 4.5 °F 12.2 °F 74% 30.07 in 10.0 mi North 17.3 mph 21.9 mph N/A Snow Light Snow
1:13 PM 19.4 °F 4.5 °F 10.4 °F 68% 30.07 in 10.0 mi North 17.3 mph - N/A Snow Light Snow
1:15 PM 19.4 °F 5.0 °F 10.4 °F 68% 30.07 in 10.0 mi North 16.1 mph - N/A Snow Light Snow
1:16 PM 19.4 °F 4.5 °F 10.4 °F 68% 30.07 in 10.0 mi North 17.3 mph - N/A   Overcast
1:30 PM 19.4 °F 4.5 °F 8.6 °F 63% 30.07 in 10.0 mi North 17.3 mph 24.2 mph N/A   Overcast
1:55 PM 18.9 °F 4.8 °F 11.8 °F 74% 30.09 in 10.0 mi NNE 15.0 mph - 0.00 in Snow Light Snow
1:57 PM 17.6 °F 2.7 °F 12.2 °F 79% 30.09 in 10.0 mi NNE 16.1 mph - N/A Snow Light Snow
1:59 PM 17.6 °F 2.2 °F 10.4 °F 73% 30.09 in 10.0 mi NNE 17.3 mph - N/A   Overcast
2:05 PM 17.6 °F 2.7 °F 10.4 °F 73% 30.09 in 10.0 mi NNE 16.1 mph - N/A   Overcast
2:12 PM 17.6 °F 2.2 °F 10.4 °F 73% 30.09 in 10.0 mi North 17.3 mph - N/A Snow Light Snow
2:22 PM 17.6 °F 2.2 °F 6.8 °F 63% 30.09 in 10.0 mi NNE 17.3 mph - N/A   Overcast
2:44 PM 17.6 °F 3.2 °F 6.8 °F 63% 30.09 in 10.0 mi North 15.0 mph - N/A   Overcast
2:55 PM 16.9 °F 0.3 °F 7.7 °F 67% 30.09 in 10.0 mi NNE 19.6 mph 25.3 mph 0.00 in   Overcast
2:59 PM 17.6 °F 2.2 °F 6.8 °F 63% 30.10 in 10.0 mi NNE 17.3 mph 25.3 mph N/A   Overcast
3:23 PM 15.8 °F 1.4 °F 6.8 °F 68% 30.12 in 10.0 mi North 13.8 mph - N/A   Overcast
3:55 PM 15.3 °F 1.4 °F 5.9 °F 67% 30.14 in 10.0 mi North 12.7 mph - N/A   Overcast
4:03 PM 15.8 °F 3.4 °F 5.0 °F 62% 30.14 in 10.0 mi North 10.4 mph - N/A   Overcast
4:16 PM 14.0 °F 1.2 °F 5.0 °F 67% 30.15 in 10.0 mi North 10.4 mph - N/A   Overcast
4:55 PM 12.0 °F 0.5 °F 4.6 °F 72% 30.16 in 10.0 mi North 8.1 mph - N/A   Overcast
5:18 PM 10.4 °F -1.5 °F 3.2 °F 73% 30.17 in 10.0 mi NNE 8.1 mph - N/A Snow Light Snow
5:22 PM 8.6 °F -3.7 °F 3.2 °F 79% 30.17 in 10.0 mi NNE 8.1 mph - N/A Snow Light Snow
5:28 PM 8.6 °F -2.6 °F 5.0 °F 85% 30.17 in 10.0 mi NNE 6.9 mph - N/A Snow Light Snow
5:30 PM 8.6 °F -3.7 °F 5.0 °F 85% 30.18 in 10.0 mi NNE 8.1 mph - N/A Snow Light Snow
5:36 PM 8.6 °F -2.6 °F 5.0 °F 85% 30.18 in 10.0 mi North 6.9 mph - N/A   Overcast
5:43 PM 8.6 °F -2.6 °F 5.0 °F 85% 30.19 in 10.0 mi North 6.9 mph - N/A Snow Light Snow
5:45 PM 8.6 °F -2.6 °F 5.0 °F 85% 30.19 in 10.0 mi North 6.9 mph - N/A Snow Light Snow
5:54 PM 10.4 °F -1.5 °F 5.0 °F 79% 30.19 in 9.0 mi North 8.1 mph - N/A Snow Light Snow
5:55 PM 9.9 °F -2.2 °F 5.4 °F 82% 30.19 in 9.0 mi North 8.1 mph - 0.00 in Snow Light Snow
6:11 PM 10.4 °F -2.4 °F 6.8 °F 85% 30.20 in 8.0 mi North 9.2 mph - N/A Snow Light Snow
6:15 PM 10.4 °F -2.4 °F 6.8 °F 85% 30.20 in 7.0 mi North 9.2 mph - N/A Snow Light Snow
6:19 PM 10.4 °F -2.4 °F 6.8 °F 85% 30.21 in 8.0 mi North 9.2 mph - N/A Snow Light Snow
6:26 PM 10.4 °F -1.5 °F 5.0 °F 79% 30.21 in 10.0 mi North 8.1 mph - N/A Snow Light Snow
6:30 PM 10.4 °F -0.4 °F 5.0 °F 79% 30.21 in 10.0 mi North 6.9 mph - N/A   Overcast
6:35 PM 8.6 °F -2.6 °F 5.0 °F 85% 30.21 in 10.0 mi North 6.9 mph - N/A   Overcast
6:53 PM 6.8 °F -4.8 °F 3.2 °F 85% 30.22 in 10.0 mi North 6.9 mph - N/A   Mostly Cloudy
6:55 PM 6.6 °F -5.0 °F 2.5 °F 83% 30.22 in 10.0 mi North 6.9 mph - 0.00 in   Mostly Cloudy
7:19 PM 5.0 °F -5.6 °F 1.4 °F 85% 30.23 in 10.0 mi North 5.8 mph - N/A   Mostly Cloudy
7:25 PM 5.0 °F -5.6 °F 1.4 °F 85% 30.23 in 10.0 mi North 5.8 mph - N/A   Mostly Cloudy
7:35 PM 5.0 °F -5.6 °F 1.4 °F 85% 30.24 in 8.0 mi North 5.8 mph - N/A   Overcast
7:40 PM 5.0 °F -5.6 °F 1.4 °F 85% 30.24 in 6.0 mi North 5.8 mph - N/A   Overcast
7:47 PM 5.0 °F -5.6 °F 1.4 °F 85% 30.25 in 7.0 mi NNE 5.8 mph - N/A   Overcast
7:51 PM 5.0 °F -6.9 °F -0.4 °F 78% 30.25 in 9.0 mi NNE 6.9 mph - N/A   Overcast
8:00 PM 3.2 °F -10.3 °F -0.4 °F 85% 30.25 in 10.0 mi North 8.1 mph - N/A   Overcast
8:06 PM 5.0 °F -6.9 °F -0.4 °F 78% 30.25 in 10.0 mi North 6.9 mph - N/A   Overcast
8:14 PM 3.2 °F -7.8 °F -0.4 °F 85% 30.25 in 10.0 mi North 5.8 mph - N/A   Overcast
8:32 PM 3.2 °F -9.1 °F -0.4 °F 85% 30.26 in 10.0 mi North 6.9 mph - N/A   Overcast
8:43 PM 5.0 °F -5.6 °F -0.4 °F 78% 30.27 in 10.0 mi North 5.8 mph - N/A   Mostly Cloudy
8:46 PM 5.0 °F -5.6 °F -0.4 °F 78% 30.27 in 10.0 mi North 5.8 mph - N/A   Scattered Clouds
8:55 PM 4.5 °F -6.3 °F 0.1 °F 82% 30.27 in 10.0 mi NNW 5.8 mph - N/A   Partly Cloudy
9:55 PM 3.6 °F -8.7 °F -0.8 °F 82% 30.29 in 10.0 mi NNW 6.9 mph - N/A   Clear
10:55 PM 4.6 °F -7.4 °F -1.1 °F 77% 30.31 in 10.0 mi NNW 6.9 mph - N/A   Clear
11:55 PM 3.0 °F -8.0 °F -2.7 °F 77% 30.33 in 10.0 mi NW 5.8 mph - N/A   Clear